Hourly Weather Roundup
Issued by NWS Central Illinois

Home | Current Version | Previous Version | Text Only | Print | Product List | Glossary Off
Versions: 1 2 3 4 5 6 7 8 9 10 11 12 13 14 15 16 17 18 19 20 21 22 23 24 25 26 27 28 29 30 31 32 33 34 35 36 37 38 39 40 41 42 43 44 45 46 47 48 49 50

000
NZUS43 KILX 280310
HWRILX

AREA WEATHER ROUNDUP
NATIONAL WEATHER SERVICE, LINCOLN IL
900 PM CST THU NOV 27 2014


CITY           SKY/WX    TMP DP  RH WIND       PRES   REMARKS
BLOOMINGTON    CLEAR     15   9  77 NW6       30.42F WCI   6
CHAMPAIGN      CLEAR     16  11  80 W8        30.43S WCI   5
DECATUR        PTCLDY    16   6  65 NW6       30.43F WCI   7
FLORA          CLEAR     20  18  91 CALM      30.47F
GALESBURG      PTCLDY     8   5  89 SW3       30.43R
JACKSONVILLE   CLEAR     11   6  83 CALM      30.43S
LACON          PTCLDY    12   7  79 CALM      30.45R
LAWRENCEVILLE  PTCLDY    23  18  81 NW8       30.47F WCI  14
LITCHFIELD     PTCLDY    15  11  83 CALM      30.44S
$$


CITY           SKY/WX    TMP DP  RH WIND       PRES   REMARKS
LINCOLN        PTCLDY    13   6  74 CALM      30.46F
MACOMB         PTCLDY     7   3  84 W5        30.47R WCI  -2
MATTOON        CLEAR     14  10  84 W6        30.43F WCI   5
MT CARMEL AP   CLEAR     27  19  74 W6        30.47S WCI  20
OLNEY-NOBLE AP PTCLDY    19  16  86 CALM      30.48S
PARIS          CLEAR     19  17  92 W5        30.45S WCI  12
PEORIA         PTCLDY    14   6  70 W3        30.45R
PONTIAC        CLEAR     16  11  82 W6        30.43S WCI   7
RANTOUL        MOCLDY    21  13  71 NW6       30.42S WCI  14
ROBINSON       CLEAR     21  17  84 N5        30.47F WCI  15
SPRINGFIELD    PTCLDY     9   7  92 CALM      30.43F
TAYLORVILLE    PTCLDY    16   9  73 CALM      30.44F
$$

...REGIONAL REPORTS...


CITY           SKY/WX    TMP DP  RH WIND       PRES   REMARKS
CHICAGO O`HARE PTCLDY    16   9  74 CALM      30.39S
KANKAKEE       CLOUDY   N/A N/A N/A W8        30.42S
MOLINE         PTCLDY    13   6  74 CALM      30.41F
MOUNT VERNON   PTCLDY    19  14  79 CALM      30.46F
PITTSFIELD     PTCLDY    18  14  85 CALM      30.43F
QUINCY         PTCLDY    17   5  59 E5        30.43S WCI  10
ROCKFORD       CLOUDY    13   3  64 W3        30.42S
$$


CITY           SKY/WX    TMP DP  RH WIND       PRES   REMARKS
BURLINGTON     PTCLDY    10   4  76 CALM      30.43R
CEDAR RAPIDS   MOCLDY     9   4  80 SW5       30.38F WCI   1
DES MOINES     CLOUDY    14   4  64 SE8       30.34F WCI   3
KIRKSVILLE     CLOUDY    19  14  81 SE10      30.38F WCI   7
OTTUMWA        CLOUDY    12   2  64 E7        30.38F WCI   1
ST LOUIS       PTCLDY    25  17  72 E7        30.45S WCI  17
$$


CITY           SKY/WX    TMP DP  RH WIND       PRES   REMARKS
TERRE HAUTE    CLEAR     21  16  81 W6        30.45S WCI  13
EVANSVILLE     CLEAR     27  20  75 CALM      30.49S
INDIANAPOLIS   FLURRIES  25  19  78 NW6       30.39S WCI  18
LAFAYETTE      CLOUDY    23  17  78 W9        30.41S WCI  13
MADISON        MOCLDY     8   4  83 N3        30.37F
MILWAUKEE      PTCLDY    15   7  70 NW5       30.39S WCI   8
$$





USA.gov is the U.S. government's official web portal to all federal, state and local government web resources and services.